Regional Weather Roundup
Issued by NWS Green Bay, WI

Home | Current Version | Previous Version | Graphics & Text | Print | Product List | Glossary Off
Versions: 1 2 3 4 5 6 7 8 9 10 11 12 13 14 15 16 17 18 19 20 21 22 23 24 25 26 27 28 29 30 31 32 33 34 35 36 37 38 39 40 41 42 43 44 45 46 47 48 49 50

000
ASUS43 KGRB 242200
RWRGRB

NORTH-CENTRAL AND NORTHEAST WISCONSIN REGIONAL WEATHER ROUNDUP
NATIONAL WEATHER SERVICE GREEN BAY WI
500 PM CDT SAT JUN 24 2017

WIZ005-009-010>012-018-019-242300-
NORTH CENTRAL WISCONSIN

CITY           SKY/WX    TMP DP  RH WIND       PRES   REMARKS
IRONWOOD       CLOUDY    57  51  80 W13       29.94R
MANITOWISH WTR NOT AVBL
ARBOR VITAE    NOT AVBL
EAGLE RIVER    NOT AVBL
LAND O LAKES   DRIZZLE   53  50  90 W6        29.95S
RHINELANDER    PTSUNNY   62  51  67 W15       29.94S
PHILLIPS       NOT AVBL
ANTIGO         NOT AVBL
TOMAHAWK       NOT AVBL
MERRILL        PTSUNNY   60  44  55 W17G26    29.95R
$$

WIZ013-073-242300-
NORTHEAST WISCONSIN

CITY           SKY/WX    TMP DP  RH WIND       PRES   REMARKS
IRON MOUNTAIN  RAIN      57  53  86 NW7       29.91R FOG
MARINETTE      PTSUNNY   62  54  74 N10G16    29.91S
$$

WIZ017-030-035>037-045-242300-
CENTRAL WISCONSIN

CITY           SKY/WX    TMP DP  RH WIND       PRES   REMARKS
MEDFORD        NOT AVBL
WAUSAU         CLOUDY    62  43  49 W17G23    29.94R
MOSINEE        PTSUNNY   64  45  48 W17       29.96S
MARSHFIELD     SUNNY     63  41  44 W16G23    29.95F
WISC RAPIDS    MOSUNNY   69  42  37 W14G22    29.97F
STEVENS POINT  NOT AVBL
WAUPACA        MOSUNNY   70  39  32 W10G22    29.94F
SHAWANO        NOT AVBL
CLINTONVILLE   NOT AVBL
WAUTOMA        SUNNY     68  42  38 W23G29    29.96F
$$

WIZ038-039-048-051-242300-
FOX VALLEY

CITY           SKY/WX    TMP DP  RH WIND       PRES   REMARKS
NWS GREEN BAY  MOSUNNY   70  45  40 W17G29    29.92S
APPLETON       PTSUNNY   66  36  32 W20G26    29.93F
OSHKOSH        MOSUNNY   66  42  41 W18G25    29.94S
FOND DU LAC    SUNNY     69  43  38 NW17G28   29.95S
$$

WIZ022-050-052-242300-
EAST CENTRAL WISCONSIN

CITY           SKY/WX    TMP DP  RH WIND       PRES   REMARKS
EPHRAIM        NOT AVBL
WASHINGTON ISL NOT AVBL
STURGEON BAY     N/A     61  54  77 N8          N/A
MANITOWOC      NOT AVBL
SHEBOYGAN      PTSUNNY   67  48  50 W14G25    29.93S
$$

LMZ563-521-522-541>543-242300-
LAKESHORE

STATION/POSITION TIME  TEMP    WIND        PRES    VSBY  WAVE
                       AIR SEA DIR/SP/G                  HT/PER
                 (UTC) (F)     (DEG/KT/KT) (MB)    (MI)  (FT/S)
SHEBOYGAN LKSHOR 2100   68     280/ 19/ 22 1013.2S
KEWAUNEE LKSHORE 2130   67     280/ 12/ 18 1012.6S
NORTHPORT PIER   2140   60     300/  4/ 10 1012.5R
N MID LAKE BUOY  2050   58 58  260/ 10/ 14 1012.7R         1
S GREEN BAY BUOY 2130   66     260/ 16/ 19 1012.7R
CHAMBERS ISLAND  2140   61     300/  5/  8 1012.5S
MENOMINEE LKSHOR 2124          310/ 10/ 16 1012.2
$$



USA.gov is the U.S. government's official web portal to all federal, state and local government web resources and services.